Погода в Наласе

Россия / Республика Татарстан     56°06′41″N   49°44′16″E
темп.,
°C
ветер,
м/с
пор.,
м/с
влажн.,
%
обл.,
%
осадки,
мм/ч
давл.,
гПа
погр.,
м
16 мая, вс
вс1600:00+17ю412628 0.0 1017188
03:00+16ю366352 0.0 101785
06:00+19ю4145936 0.0 1016348
09:00+23ююз6114882 0.0 1016474
12:00+26ююз8113999 0.0 1016852
15:00+27ююз81140100 0.0 10161303
18:00+23ю5115294 0.0 1015288
21:00+19ююз456162 0.0 101671
17 мая, пн
пн1700:00+18зюз226628 0.0 101621
03:00+16зюз117810 0.0 101711
06:00+19юз117037 0.0 101877
09:00+23юз235737 0.0 1018532
12:00+27зюз3544100 0.0 10181295
15:00+28зюз354092 0.0 10171825
18:00+26сз23576 0.0 101751
21:00+20с116756 0.4 101811
18 мая, вт
вт1800:00+17в337975 0.7 101932
03:00+16всв3577100 0.7 101963
06:00+18в3775100 0.0 1020209
09:00+23в4458100 0.0 1020470
12:00+25в4450100 0.0 1019931
15:00+26в4448100 0.0 10191192
18:00+24всв366482 0.0 1019154
21:00+19в41067100 0.1 1020184
19 мая, ср
ср1900:00+17в41068100 0.1 1019174
03:00+15вюв4126966 0.1 1020244
06:00+16вюв5117474 0.0 1020328
09:00+20вюв685876 0.0 1020587
12:00+22вюв6746100 0.0 1019948
15:00+24вюв6743100 0.0 10191156
18:00+21в51060100 0.0 1017273
21:00+17в5137021 0.0 1017222
20 мая, чт
чт2000:00+17юв514702 0.0 1016299
03:00+15юв513682 0.0 1016280
06:00+16юв614680 0.0 1016438
09:00+21ююв79585 0.0 1016841
12:00+23ю8105692 0.0 10161668
15:00+19ююз81261100 0.1 1017950
18:00+16ююв5117697 0.1 1016535
21:00+14ююв5129145 0.1 1016303